Location: Audinghen
(50.8518°N, 1.6129°E)
Time: 08:43:50
(UTC+00:00)

Cosmos 1271 Rocket - Pass Details

Date: 07 August 2020
Orbit: 499 x 545 km, 81.2° (Epoch: 20 September)

Event Time Altitude Azimuth Distance (km) Brightness Sun altitude
Rises 00:37:26 0° 337° (NNW) 2,609 7.2 -22.3°
Reaches altitude 10° 00:39:48 10° 324° (NW) 1,723 5.9 -22.2°
Enters shadow 00:42:23 24° 282° (WNW) 1,098 4.3 -22.2°
